Location: Lalanga
(4.5882°N, 32.9072°E)
Time: 03:39:37
(UTC+00:00)

CZ-2C R/B - Pass Details

Date: 24 January 2020
Orbit: 640 x 705 km, 98.4° (Epoch: 18 February)

Event Time Altitude Azimuth Distance (km) Brightness Sun altitude
Exits shadow 17:07:48 15° 17° (NNE) 1,709 5.5 -17.4°
Maximum altitude 17:11:25 78° 102° (ESE) 671 3.5 -18.3°
Drops below altitude 10° 17:15:57 10° 188° (S) 2,081 6.6 -19.3°
Sets 17:18:12 0° 190° (S) 3,005 7.5 -19.9°
